Flag for Russia Weather past 2 weeks in Yuzhno-Sakhalinsk, Russia

Now
54 °F

Passing clouds.


Feels Like: 53 °F
Forecast: 40 / 68 °F
Wind: 3 mph from Southeast

Location: Yuzhno Airport-Sakhalinsk

Current Time: Jun 30, 2015 at 11:08:57 PM

Latest Report: Jun 30, 2015 at 10:00 PM


Visibility: N/A

Pressure: 29.56 "Hg

Humidity: 100%

Dew point: 54 °F

Location of Yuzhno-SakhalinskLocation

Historic Weather in Yuzhno-Sakhalinsk — Graph

°F

Yuzhno-Sakhalinsk temperature yesterday

Maximum temperature yesterday: 55 °F (at 3:00 PM)
Minimum temperature yesterday: 46 °F (at 12:00 AM)
Average temperature yesterday: 50 °F

Past Weeks' High & Low Weather Summary

 TemperatureHumidityPressure
High73 °F (Jun 18, 12:00 PM)100% (Jun 15, 11:00 PM)30.01 "Hg (Jun 15, 11:00 PM)
Low34 °F (Jun 27, 4:00 AM)63% (Jun 26, 3:00 PM)29.47 "Hg (Jun 30, 1:30 PM)
Average53 °F87%29.85 "Hg
* Reported Jun 15 10:00 PM — Jun 30 10:00 PM, Yuzhno-Sakhalinsk, Weather by CustomWeather, © 2015

Note: Actual official high and low records may vary slightly from our data, if they occured in-between our weather recording intervals... More about our weather records

Advertising

Yuzhno-Sakhalinsk weather history for previous 24 hours

 ConditionsComfort  
Time TempWeatherWind HumidityBarometerVisibility
10:00 PM
Tue, Jun 30
54 °FPassing clouds.3 mph100%29.56 "HgN/A
9:30 PM54 °FPassing clouds.6 mph100%29.53 "HgN/A
9:00 PM55 °FPassing clouds.6 mph94%29.53 "HgN/A
8:30 PM57 °FPassing clouds.6 mph94%29.50 "HgN/A
8:00 PM57 °FPassing clouds.8 mph94%29.50 "HgN/A
7:30 PM61 °FScattered clouds.8 mph83%29.50 "HgN/A
7:00 PM61 °FScattered clouds.8 mph88%29.47 "HgN/A
6:30 PM61 °FScattered clouds.15 mph88%29.47 "HgN/A
6:00 PM61 °FScattered clouds.15 mph88%29.47 "HgN/A
5:00 PM63 °FScattered clouds.17 mph83%29.47 "HgN/A
4:30 PM64 °FPartly sunny.15 mph83%29.47 "HgN/A
4:00 PM64 °FPartly sunny.15 mph83%29.47 "HgN/A
3:30 PM64 °FPartly sunny.15 mph83%29.47 "HgN/A
3:00 PM64 °FPartly sunny.15 mph88%29.47 "HgN/A
2:30 PM63 °FBroken clouds.15 mph94%29.47 "HgN/A
2:00 PM57 °FFog.15 mph100%29.50 "Hg2 mi
1:30 PM57 °FFog.15 mph100%29.47 "Hg2 mi
1:00 PM57 °FFog.17 mph100%29.50 "Hg2 mi
12:30 PM55 °FFog.15 mph100%29.50 "Hg2 mi
12:00 PM55 °FFog.20 mph100%29.50 "Hg1 mi
11:30 AM55 °FFog.20 mph100%29.50 "Hg1 mi
11:00 AM55 °FFog.10 mph100%29.50 "Hg1 mi
10:30 AM55 °FSprinkles. Fog.13 mph100%29.50 "Hg1 mi
10:00 AM55 °FSprinkles. Fog.13 mph100%29.50 "Hg1 mi
9:30 AM55 °FSprinkles. Fog.15 mph100%29.50 "Hg1 mi
9:00 AM55 °FSprinkles. Fog.17 mph100%29.50 "Hg1 mi
8:30 AM55 °FSprinkles. Fog.13 mph100%29.50 "Hg1 mi
8:00 AM55 °FSprinkles. Fog.17 mph100%29.50 "Hg1 mi
7:30 AM55 °FSprinkles. Fog.17 mph100%29.53 "Hg1 mi
7:00 AM55 °FSprinkles. Fog.15 mph100%29.53 "Hg2 mi
6:30 AM55 °FSprinkles. Fog.8 mph100%29.53 "Hg2 mi
6:00 AM54 °FSprinkles. Fog.8 mph100%29.56 "Hg2 mi
5:00 AM52 °FSprinkles. Fog.6 mph100%29.56 "Hg2 mi
4:00 AM52 °FSprinkles. Fog.3 mph100%29.59 "Hg2 mi
3:00 AM50 °FSprinkles. Fog.6 mph100%29.62 "Hg3 mi
2:00 AM52 °FFog.6 mph94%29.62 "Hg3 mi
1:00 AM52 °FFog.3 mph94%29.65 "Hg3 mi
12:00 AM52 °FFog.6 mph94%29.65 "Hg3 mi
11:00 PM
Mon, Jun 29
50 °FFog.6 mph100%29.68 "Hg2 mi
Weather by CustomWeather, © 2015

See weather overviewHow to use our weather pages